Погода в Бурукане

Погода в Бурукане : погода сейчас, прогноз погоды и архив. Всё, что Вы хотите узнать о погоде в Бурукане!

Поиск расширенной информации на нашем сайте:

Другие новости

Новости СМИ2

Главная страница сайта

Новости сайта

02.10.2013

Напоминаем, что на нашем новом сайте вы можете получить высокодетализированные прогнозы погоды по пунктам России, СНГ и мира (включающие важные для авиации метеовеличины, такие как направление и скорость ветра, видимость, явления погоды, количество и форма облачности, нижняя и верхняя граница облачности), а также ознакомиться с разнообразными материалами по авиационной метеорологии и подборкой полезных ссылок на эту тему.

Сайт Метеоцентр.Азия посвящён разработке технологий оптимизации авиаметеорологического обслуживания, включая проектирование и перспективное создание нескольких автоматизированных авиаметеорологических систем:
- система выпуска высокодетальных прогностических карт явлений погоды для нижнего воздушного пространства по России и ближнему зарубежью;
- система верификации прогнозов TAF (выпускаемых синоптиками официальных АМСГ РФ и ближнего зарубежья) и AUTOTAF (выпускаемых сайтом Метеоцентр.Азия) - выявление ошибок, онлайн-сопоставление с фактической погодой METAR, автоматическое внесение коррективов в прогнозы при резком отклонении фактической погоды от прогноза, подсчёт оправдываемости прогнозов по элементам и в целом;
- система обработки, анализа и отображения авиаметеорологической информации для применения провайдерами метеорологической информации.

Рекомендуем: шарж минск

Погода в Бурукане - сегодня

Время (UTC), дата Ветер
(°,м/с) 
Видим.   Явления Облачность Т
(°С)
Тd
(°С)
f(%) Тe
(°С)
Pmin
(гПа)
dP
(гПа)
Po
(мм)
O2
(г/м3)
Тmin Tmax R s Состояние
почвы
03 21.01.17 360 (С) 20000 м    6/0 средняя, верхняя 
[Ac trans|Ci fib]
-24.7 -30.3 60 -25  1029.3  -0.3  756  337           
06 21.01.17 тихо ()   20000 м    10/6 1000 м средняя 
[Sc|Ac und]
-19.6 -26.4 55 -20  1027.9  -0.9  755  330           
09 21.01.17 тихо ()   20000 м    10/3 1000 м средняя, верхняя 
[Sc|Ac trans|Ci fib]
-25.1 -27.6 80 -25  1029  0.5  756  337    -19.2       
12 21.01.17 тихо ()   20000 м    1/0 верхняя 
[Ci fib]
-29.5 -32 79 -30  1029.7  0.3  756  343           
15 21.01.17 тихо ()   20000 м    ясно 
-33.9 -36.8 75 -34  1029.6  -0.4  756  350           
18 21.01.17 тихо ()   20000 м    ясно 
-35.6 -38.4 75 -36  1028.7  -1.1  755  352           
21 21.01.17 310 (СЗ) 20000 м    ясно 
-36.5 -40.1 69 -38  1028  -0.7  754  353  -36.6      20  равномерный
сухой снег
100% 
00 22.01.17 тихо ()   20000 м    ясно 
-35.3 -38.4 73 -35  1027.9  -0.1  754  351  -37         
03 22.01.17 040 (СВ) 20000 м    6/0 верхняя 
[Ci fib]
-21.4 -26.2 65 -22  1025.4  -1.2  753  331           
06 22.01.17 350 (С) 20000 м    10/0 верхняя 
[Ci fib]
-17.3 -25.3 50 -17  1023.7  -1.4  752  325           
09 22.01.17 тихо ()   20000 м    8/0 верхняя 
[Ci fib]
-24.7 -27.2 80 -25  1024.7  0.5  753  335    -16.3       
12 22.01.17 320 (СЗ) 20000 м    ясно 
-32.4 -35.5 74 -33  1025.7  0.3  753  346           
15 22.01.17 тихо ()   20000 м    ясно 
-35.8 -39.4 69 -36  1026.5  0.4  753  351           
21 22.01.17 310 (СЗ) 20000 м    ясно 
-38.1 -41.6 70 -39  1026.2  -0.3  753  355  -38.2      19  равномерный
сухой снег
100% 
00 23.01.17 тихо ()   20000 м    ясно 
-38.5 -42 69 -39  1026.7  0.5  753  355  -39.1         
03 23.01.17 010 (С) 20000 м    ясно 
-21.8 -28.4 55 -22  1023.7  -1.5  752  331           
06 23.01.17 тихо ()   20000 м    ясно 
-17.8 -24.7 55 -18  1021.9  -1.4  751  325           
09 23.01.17 тихо ()   20000 м    1/0 средняя 
[Ac lent]
-28.4 -30.8 80 -28  1022.7  751  340    -17.5       
12 23.01.17 тихо ()   20000 м    ясно 
-32.1 -35 75 -32  1022.7  -0.4  751  345           
15 23.01.17 тихо ()   20000 м    ясно 
-34.5 -37.4 75 -35  1021.6  -1.3  750  348           
18 23.01.17 тихо ()   20000 м    ясно 
-35.1 -38 75 -35  1021.8  750  349           
21 23.01.17 тихо ()   20000 м    ясно 
-36.2 -39.7 70 -36  1021.8  750  350  -36.7      19  равномерный
сухой снег
100% 
00 24.01.17 тихо ()   20000 м    8/0 верхняя 
[Ci fib]
-35 -38 74 -35  1022.8  1.1  750  349           
03 24.01.17 230 (ЮЗ) 20000 м    10/0 верхняя 
[Ci sp]
-23.1 -27.2 69 -24  1020.7  -1  750  332           
06 24.01.17 150 (ЮВ) 20000 м    9/0 средняя, верхняя 
[Ac trans|Ci sp]
-20.3 -25.2 65 -21  1019.6  -0.8  749  328           
Время (UTC), дата Ветер
(°,м/с) 
Видим.   Явления Облачность Т
(°С)
Тd
(°С)
f(%) Тe
(°С)
Pmin
(гПа)
dP
(гПа)
Po
(мм)
O2
(г/м3)
Тmin Tmax R s Состояние
почвы

Для получения пояснительной информации подведите курсор к названию столбца.

ПОГОДА в Бурукане - архив

Всё, что Вы хотите узнать о погоде в Бурукане - удобно и подробно!

Выберите нужную дату (начиная с 1 января 2015* года) и нажмите кнопку "Найти".
Будут отображены архивные сводки погоды по пункту Бурукан, начиная с указанной даты.


Отображать данные в формате CSV (для использования в таблицах Excel)


Внимание! Наш архив погоды предназначен исключительно для личного некоммерческого использования в познавательных целях. Если Вам необходимы официальные справки о состоянии погоды (для производственных, юридических, коммерческих и т.п. целей), обращайтесь в органы Росгидромета.

*Примечание: данная дата относится к архиву по метеостанциям СССР (Россия, СНГ, Балтия).
Архив по метеостанциям Зарубежной Европы и Азии (кроме Китая) хранится 10 дней, по другим регионам земного шара (Китай, Африка, Америка, Австралия, Океания) - 1 день.

Бурукан - район местоположения метеостанции


Название, широта, долгота, высота метеостанции:
Бурукан 53.1°ш. 136°д. 153 м над ур. моря [Российская Федерация]

Дополнительная информация

В oтличие oт бoльшинства пoгoдных сайтoв мы публикуем пoдрoбную метеoинфoрмацию в детальнoм прoфессиoнальнoм фoрмате.

Характеристики температуры и влажнoсти вoздуха измеряются на высoте 2 м в тени вдали oт зданий и деревьев.
Скoрoсть ветра измеряется на высoте 10 м (на урoвне рoста челoвека скoрoсть ветра ниже в 1.5-2 раза). Если метеoстанция нахoдится в гoрoде или в лесу, тo скoрoсть ветра занижена на 2-4 м/с пo сравнению с oткрытым местoм. Скoрoсть ветра над акватoриями крупных рек и oзёр, а также на вершинах хoлмoв на 2-5 м/с выше, чем в oбычных услoвиях.
Атмoсфернoе давление в разных тoчках местнoсти мoжет значительнo oтличаться oт давления на метеoстанции, в зависимoсти oт услoвий рельефа (при пoдъёме на 10 м давление пoнижается примернo на 1 мм рт.ст.).